Date,TemperatureHighF,TemperatureAvgF,TemperatureLowF,DewpointHighF,DewpointAvgF,DewpointLowF,HumidityHigh,HumidityAvg,HumidityLow,PressureMaxIn,PressureMinIn,WindSpeedMaxMPH,WindSpeedAvgMPH,GustSpeedMaxMPH,PrecipitationSumIn
2013-12-1,39.3,33.7,29.0,24.0,16.7,9.0,68,51,37,30.35,29.95,38,7,51,0.00
2013-12-2,39.4,35.3,32.3,24.0,21.3,18.0,68,57,47,30.08,29.67,40,18,57,0.00
2013-12-3,36.5,25.2,2.4,27.0,15.7,-1.0,88,70,44,29.81,29.58,40,4,40,0.00
2013-12-4,2.6,-2.2,-10.4,-2.0,-6.8,-16.0,86,81,74,30.62,29.81,6,1,16,0.00
2013-12-5,17.2,-2.6,-14.3,5.0,-8.0,-19.0,86,78,57,30.68,30.50,5,-10,9,0.01
2013-12-6,9.3,-2.8,-14.7,2.0,-8.2,-19.0,84,78,65,30.86,30.66,5,0,7,0.00
2013-12-7,21.9,9.1,0.6,10.0,2.9,-4.0,89,76,53,30.80,30.14,7,2,12,0.00
2013-12-8,15.0,10.2,2.8,8.0,-0.2,-9.0,81,63,49,30.37,30.03,22,5,37,0.00
2013-12-9,11.4,2.7,-8.1,-1.0,-9.6,-14.0,86,58,40,30.81,30.36,39,13,50,0.00
2013-12-10,27.2,20.4,11.2,10.0,6.0,-1.0,62,54,47,30.77,30.35,38,17,57,0.00
2013-12-11,33.3,25.3,11.2,9.0,1.0,-9.0,77,40,16,30.68,30.54,23,9,34,0.00
2013-12-12,46.9,38.0,32.3,6.0,-1.6,-11.0,26,19,13,30.65,30.05,26,11,34,0.00
2013-12-13,38.5,30.4,21.5,12.0,8.4,3.0,59,41,27,30.32,29.94,22,10,31,0.00
2013-12-14,29.2,23.0,17.7,12.0,9.0,7.0,63,56,43,30.57,30.32,35,13,42,0.00
2013-12-15,36.7,31.9,26.2,17.0,13.9,10.0,62,48,34,30.55,30.32,36,17,50,0.00
2013-12-16,43.5,37.8,34.8,18.0,11.4,3.0,50,35,24,30.42,30.24,39,15,53,0.00
2013-12-17,44.8,39.6,31.9,13.0,9.9,6.0,40,30,23,30.50,30.21,22,8,35,0.00
2013-12-18,50.5,42.6,35.9,12.0,8.3,6.0,38,25,17,30.21,29.80,20,6,31,0.00
2013-12-19,47.9,32.5,14.7,19.0,15.5,11.0,91,55,23,29.83,29.61,13,3,18,0.00
2013-12-20,34.1,25.4,14.0,20.0,15.1,7.0,92,66,53,29.94,29.83,31,6,36,0.00
2013-12-21,27.6,20.7,13.9,17.0,10.0,4.0,90,66,44,30.17,29.74,21,5,29,0.00
2013-12-22,24.7,17.9,12.1,13.0,7.8,5.0,87,66,45,30.54,30.18,29,6,44,0.00
2013-12-23,31.0,24.1,11.1,20.0,14.6,8.0,90,68,51,30.62,30.44,50,13,54,0.00
2013-12-24,37.8,26.1,16.5,26.0,15.7,3.0,85,65,49,30.53,30.24,32,10,45,0.00
2013-12-25,31.5,24.4,17.4,5.0,2.0,-1.0,51,39,30,30.74,30.51,31,12,38,0.00
2013-12-26,39.6,31.5,27.6,15.0,6.6,-5.0,53,36,22,30.63,30.51,32,12,37,0.00
2013-12-27,48.8,37.4,31.0,21.0,17.3,14.0,57,45,28,30.52,30.23,17,7,23,0.00
2013-12-28,43.1,31.4,13.3,19.0,16.9,11.0,90,58,36,30.28,30.00,24,7,29,0.00
2013-12-29,28.4,19.6,10.2,15.0,7.2,-2.0,90,63,32,30.48,30.28,44,8,53,0.01
2013-12-30,31.0,25.6,20.0,12.0,10.3,5.0,69,53,42,30.55,30.34,35,10,43,0.00
2013-12-31,37.9,32.5,29.0,21.0,16.7,8.0,64,53,38,30.38,30.13,35,10,52,0.00